Time,TemperatureF,DewpointF,PressureIn,WindDirection,WindDirectionDegrees,WindSpeedMPH,WindSpeedGustMPH,Humidity,HourlyPrecipIn,Conditions,Clouds,dailyrainin,SoftwareType,DateUTC
2013-10-03 00:02:00,40.5,26.0,29.88,ENE,72,3.0,6.0,56,0.00,,,0.00,Wunderground v.1.15,2013-10-03 06:02:00,
2013-10-03 00:07:00,39.9,27.5,29.88,NE,41,6.0,9.0,61,0.00,,,0.00,Wunderground v.1.15,2013-10-03 06:07:00,
2013-10-03 00:12:00,39.2,28.4,29.88,ENE,66,7.0,7.0,65,0.00,,,0.00,Wunderground v.1.15,2013-10-03 06:12:00,
2013-10-03 00:17:00,38.9,28.9,29.89,ESE,107,5.0,7.0,67,0.00,,,0.00,Wunderground v.1.15,2013-10-03 06:17:00,
2013-10-03 00:22:00,38.7,29.0,29.89,East,79,3.0,3.0,68,0.00,,,0.00,Wunderground v.1.15,2013-10-03 06:22:00,
2013-10-03 00:27:00,38.5,29.6,29.89,NE,54,3.0,3.0,70,0.00,,,0.00,Wunderground v.1.15,2013-10-03 06:27:00,
2013-10-03 00:36:00,37.7,29.5,29.89,ENE,68,2.0,3.0,72,0.00,,,0.00,Wunderground v.1.15,2013-10-03 06:36:00,
2013-10-03 00:42:00,37.4,29.5,29.89,NE,50,2.0,2.0,73,0.00,,,0.00,Wunderground v.1.15,2013-10-03 06:42:00,
2013-10-03 00:47:00,37.3,29.4,29.88,ENE,58,1.0,2.0,73,0.00,,,0.00,Wunderground v.1.15,2013-10-03 06:47:00,
2013-10-03 00:52:00,37.1,29.6,29.89,ESE,104,1.0,1.0,74,0.00,,,0.00,Wunderground v.1.15,2013-10-03 06:52:00,
2013-10-03 00:57:00,37.0,29.5,29.89,NW,318,0.0,1.0,74,0.00,,,0.00,Wunderground v.1.15,2013-10-03 06:57:00,
2013-10-03 01:11:00,36.9,28.4,29.88,WNW,296,1.0,2.0,71,0.00,,,0.00,Wunderground v.1.15,2013-10-03 07:11:00,
2013-10-03 01:16:00,37.0,28.5,29.88,NNE,12,1.0,2.0,71,0.00,,,0.00,Wunderground v.1.15,2013-10-03 07:16:00,
2013-10-03 01:22:00,37.1,28.2,29.88,East,85,1.0,1.0,70,0.00,,,0.00,Wunderground v.1.15,2013-10-03 07:22:00,
2013-10-03 01:27:00,37.2,28.3,29.88,NE,49,1.0,6.0,70,0.00,,,0.00,Wunderground v.1.15,2013-10-03 07:27:00,
2013-10-03 01:32:00,37.2,28.3,29.88,ENE,75,1.0,1.0,70,0.00,,,0.00,Wunderground v.1.15,2013-10-03 07:32:00,
2013-10-03 01:37:00,37.1,28.6,29.88,NNW,336,2.0,2.0,71,0.00,,,0.00,Wunderground v.1.15,2013-10-03 07:37:00,
2013-10-03 01:42:00,36.9,29.4,29.89,NNW,346,2.0,3.0,74,0.00,,,0.00,Wunderground v.1.15,2013-10-03 07:42:00,
2013-10-03 01:47:00,36.4,29.9,29.89,NW,319,2.0,4.0,77,0.00,,,0.00,Wunderground v.1.15,2013-10-03 07:47:00,
2013-10-03 01:57:00,35.4,30.5,29.88,WNW,299,2.0,3.0,82,0.00,,,0.00,Wunderground v.1.15,2013-10-03 07:57:00,
2013-10-03 02:01:00,35.0,30.7,29.88,ESE,104,2.0,2.0,84,0.00,,,0.00,Wunderground v.1.15,2013-10-03 08:01:00,
2013-10-03 02:07:00,34.8,30.8,29.88,WNW,295,2.0,2.0,85,0.00,,,0.00,Wunderground v.1.15,2013-10-03 08:07:00,
2013-10-03 02:12:00,34.6,30.6,29.88,NW,304,2.0,4.0,85,0.00,,,0.00,Wunderground v.1.15,2013-10-03 08:12:00,
2013-10-03 02:17:00,34.5,30.7,29.88,NNW,340,2.0,4.0,86,0.00,,,0.00,Wunderground v.1.15,2013-10-03 08:17:00,
2013-10-03 02:22:00,34.2,30.2,29.88,WNW,299,3.0,3.0,85,0.00,,,0.00,Wunderground v.1.15,2013-10-03 08:22:00,
2013-10-03 02:31:00,33.7,30.0,29.87,NW,304,4.0,4.0,86,0.00,,,0.00,Wunderground v.1.15,2013-10-03 08:31:00,
2013-10-03 02:37:00,33.5,29.8,29.87,NNW,339,3.0,4.0,86,0.00,,,0.00,Wunderground v.1.15,2013-10-03 08:37:00,
2013-10-03 02:42:00,33.5,29.8,29.88,NW,326,4.0,5.0,86,0.00,,,0.00,Wunderground v.1.15,2013-10-03 08:42:00,
2013-10-03 02:47:00,33.6,29.9,29.88,NW,319,4.0,5.0,86,0.00,,,0.00,Wunderground v.1.15,2013-10-03 08:47:00,
2013-10-03 02:52:00,33.7,29.7,29.88,NE,36,4.0,4.0,85,0.00,,,0.00,Wunderground v.1.15,2013-10-03 08:52:00,
2013-10-03 02:57:00,33.8,29.8,29.87,NW,306,3.0,4.0,85,0.00,,,0.00,Wunderground v.1.15,2013-10-03 08:57:00,
2013-10-03 03:06:00,33.9,29.9,29.87,ENE,69,4.0,4.0,85,0.00,,,0.00,Wunderground v.1.15,2013-10-03 09:06:00,
2013-10-03 03:11:00,33.9,29.6,29.87,NNE,16,4.0,4.0,84,0.00,,,0.00,Wunderground v.1.15,2013-10-03 09:11:00,
2013-10-03 03:17:00,33.9,29.6,29.87,NNE,30,3.0,6.0,84,0.00,,,0.00,Wunderground v.1.15,2013-10-03 09:17:00,
2013-10-03 03:22:00,34.0,29.4,29.87,ENE,58,3.0,3.0,83,0.00,,,0.00,Wunderground v.1.15,2013-10-03 09:22:00,
2013-10-03 03:27:00,34.0,29.4,29.87,SE,129,2.0,3.0,83,0.00,,,0.00,Wunderground v.1.15,2013-10-03 09:27:00,
2013-10-03 03:32:00,34.1,29.5,29.87,NE,37,1.0,1.0,83,0.00,,,0.00,Wunderground v.1.15,2013-10-03 09:32:00,
2013-10-03 03:37:00,34.1,29.2,29.87,NNW,328,3.0,7.0,82,0.00,,,0.00,Wunderground v.1.15,2013-10-03 09:37:00,
2013-10-03 03:46:00,34.1,29.5,29.87,NE,53,3.0,3.0,83,0.00,,,0.00,Wunderground v.1.15,2013-10-03 09:46:00,
2013-10-03 03:51:00,34.0,29.4,29.87,NNW,337,3.0,7.0,83,0.00,,,0.00,Wunderground v.1.15,2013-10-03 09:51:00,
2013-10-03 03:57:00,34.0,29.7,29.88,NW,311,4.0,7.0,84,0.00,,,0.00,Wunderground v.1.15,2013-10-03 09:57:00,
2013-10-03 04:02:00,33.7,29.7,29.88,ENE,76,4.0,4.0,85,0.00,,,0.00,Wunderground v.1.15,2013-10-03 10:02:00,
2013-10-03 04:07:00,33.5,29.5,29.88,NE,39,3.0,4.0,85,0.00,,,0.00,Wunderground v.1.15,2013-10-03 10:07:00,
2013-10-03 04:12:00,33.4,29.7,29.88,NW,311,3.0,7.0,86,0.00,,,0.00,Wunderground v.1.15,2013-10-03 10:12:00,
2013-10-03 04:22:00,33.1,29.7,29.88,North,352,4.0,4.0,87,0.00,,,0.00,Wunderground v.1.15,2013-10-03 10:22:00,
2013-10-03 04:32:00,33.0,29.6,29.88,West,267,2.0,2.0,87,0.00,,,0.00,Wunderground v.1.15,2013-10-03 10:32:00,
2013-10-03 04:37:00,33.1,29.7,29.88,NNW,336,3.0,3.0,87,0.00,,,0.00,Wunderground v.1.15,2013-10-03 10:37:00,
2013-10-03 04:42:00,33.1,29.7,29.88,NW,314,4.0,4.0,87,0.00,,,0.00,Wunderground v.1.15,2013-10-03 10:42:00,
2013-10-03 04:47:00,32.9,29.7,29.88,NW,304,3.0,4.0,88,0.00,,,0.00,Wunderground v.1.15,2013-10-03 10:47:00,
2013-10-03 04:52:00,32.7,29.5,29.89,ESE,118,3.0,3.0,88,0.00,,,0.00,Wunderground v.1.15,2013-10-03 10:52:00,
2013-10-03 04:57:00,32.5,29.6,29.89,NE,45,3.0,3.0,89,0.00,,,0.00,Wunderground v.1.15,2013-10-03 10:57:00,
2013-10-03 05:06:00,32.1,29.5,29.89,WSW,249,2.0,4.0,90,0.00,,,0.00,Wunderground v.1.15,2013-10-03 11:06:00,
2013-10-03 05:12:00,32.0,29.7,29.89,NW,322,2.0,2.0,91,0.00,,,0.00,Wunderground v.1.15,2013-10-03 11:12:00,
2013-10-03 05:17:00,32.0,29.7,29.89,WSW,246,2.0,3.0,91,0.00,,,0.00,Wunderground v.1.15,2013-10-03 11:17:00,
2013-10-03 05:22:00,32.0,29.7,29.89,NW,304,2.0,4.0,91,0.00,,,0.00,Wunderground v.1.15,2013-10-03 11:22:00,
2013-10-03 05:27:00,31.9,29.6,29.89,East,84,3.0,7.0,91,0.00,,,0.00,Wunderground v.1.15,2013-10-03 11:27:00,
2013-10-03 05:32:00,31.9,29.6,29.89,NNE,15,3.0,3.0,91,0.00,,,0.00,Wunderground v.1.15,2013-10-03 11:32:00,
2013-10-03 05:37:00,32.0,29.4,29.89,NW,323,2.0,3.0,90,0.00,,,0.00,Wunderground v.1.15,2013-10-03 11:37:00,
2013-10-03 05:47:00,32.0,29.4,29.90,NE,46,2.0,5.0,90,0.00,,,0.00,Wunderground v.1.15,2013-10-03 11:47:00,
2013-10-03 05:52:00,32.1,29.2,29.90,ENE,63,2.0,2.0,89,0.00,,,0.00,Wunderground v.1.15,2013-10-03 11:52:00,
2013-10-03 05:57:00,32.2,29.3,29.91,NW,325,3.0,4.0,89,0.00,,,0.00,Wunderground v.1.15,2013-10-03 11:57:00,
2013-10-03 06:02:00,32.2,29.3,29.91,ENE,59,3.0,3.0,89,0.00,,,0.00,Wunderground v.1.15,2013-10-03 12:02:00,
2013-10-03 06:07:00,32.2,29.3,29.90,NNW,337,2.0,3.0,89,0.00,,,0.00,Wunderground v.1.15,2013-10-03 12:07:00,
2013-10-03 06:12:00,32.2,29.0,29.90,ESE,122,2.0,2.0,88,0.00,,,0.00,Wunderground v.1.15,2013-10-03 12:12:00,
2013-10-03 06:21:00,32.2,29.0,29.91,NNW,334,2.0,3.0,88,0.00,,,0.00,Wunderground v.1.15,2013-10-03 12:21:00,
2013-10-03 06:27:00,32.3,29.1,29.91,NE,49,2.0,3.0,88,0.00,,,0.00,Wunderground v.1.15,2013-10-03 12:27:00,
2013-10-03 06:32:00,32.3,29.1,29.91,South,183,3.0,3.0,88,0.00,,,0.00,Wunderground v.1.15,2013-10-03 12:32:00,
2013-10-03 06:37:00,32.3,28.9,29.91,NNE,18,4.0,4.0,87,0.00,,,0.00,Wunderground v.1.15,2013-10-03 12:37:00,
2013-10-03 06:42:00,32.3,28.9,29.92,WNW,303,4.0,5.0,87,0.00,,,0.00,Wunderground v.1.15,2013-10-03 12:42:00,
2013-10-03 06:47:00,32.3,28.9,29.92,East,82,4.0,7.0,87,0.00,,,0.00,Wunderground v.1.15,2013-10-03 12:47:00,
2013-10-03 06:52:00,32.3,28.9,29.92,East,85,3.0,3.0,87,0.00,,,0.00,Wunderground v.1.15,2013-10-03 12:52:00,
2013-10-03 07:01:00,32.3,28.9,29.92,NE,43,3.0,3.0,87,0.00,,,0.00,Wunderground v.1.15,2013-10-03 13:01:00,
2013-10-03 07:07:00,32.3,28.9,29.92,ENE,72,3.0,3.0,87,0.00,,,0.00,Wunderground v.1.15,2013-10-03 13:07:00,
2013-10-03 07:12:00,32.3,28.9,29.93,NNE,29,2.0,2.0,87,0.00,,,0.00,Wunderground v.1.15,2013-10-03 13:12:00,
2013-10-03 07:17:00,32.3,28.9,29.93,NNE,32,2.0,10.0,87,0.00,,,0.00,Wunderground v.1.15,2013-10-03 13:17:00,
2013-10-03 07:22:00,32.3,28.9,29.93,SSW,203,3.0,3.0,87,0.00,,,0.00,Wunderground v.1.15,2013-10-03 13:22:00,
2013-10-03 07:27:00,32.3,28.9,29.94,ENE,77,4.0,8.0,87,0.00,,,0.00,Wunderground v.1.15,2013-10-03 13:27:00,
2013-10-03 07:32:00,32.3,28.9,29.94,NNW,335,4.0,4.0,87,0.00,,,0.00,Wunderground v.1.15,2013-10-03 13:32:00,
2013-10-03 07:42:00,32.1,28.7,29.94,NNW,328,5.0,7.0,87,0.00,,,0.00,Wunderground v.1.15,2013-10-03 13:42:00,
2013-10-03 07:47:00,32.1,28.7,29.95,North,359,5.0,7.0,87,0.00,,,0.00,Wunderground v.1.15,2013-10-03 13:47:00,
2013-10-03 07:52:00,32.0,28.6,29.95,NNW,347,4.0,5.0,87,0.00,,,0.00,Wunderground v.1.15,2013-10-03 13:52:00,
2013-10-03 07:57:00,32.0,28.8,29.95,ENE,73,4.0,5.0,88,0.00,,,0.00,Wunderground v.1.15,2013-10-03 13:57:00,
2013-10-03 08:02:00,31.8,28.7,29.96,ENE,65,3.0,3.0,88,0.00,,,0.00,Wunderground v.1.15,2013-10-03 14:02:00,
2013-10-03 08:07:00,31.7,28.6,29.97,NE,43,3.0,5.0,88,0.00,,,0.00,Wunderground v.1.15,2013-10-03 14:07:00,
2013-10-03 08:16:00,31.3,28.4,29.97,WNW,295,5.0,5.0,89,0.00,,,0.00,Wunderground v.1.15,2013-10-03 14:16:00,
2013-10-03 08:22:00,31.3,28.4,29.97,North,4,3.0,5.0,89,0.00,,,0.00,Wunderground v.1.15,2013-10-03 14:22:00,
2013-10-03 08:27:00,31.4,28.3,29.98,ENE,75,4.0,5.0,88,0.00,,,0.00,Wunderground v.1.15,2013-10-03 14:27:00,
2013-10-03 08:32:00,31.5,28.6,29.98,WNW,299,4.0,4.0,89,0.00,,,0.00,Wunderground v.1.15,2013-10-03 14:32:00,
2013-10-03 08:37:00,31.4,28.3,29.98,ESE,106,3.0,4.0,88,0.00,,,0.00,Wunderground v.1.15,2013-10-03 14:37:00,
2013-10-03 08:42:00,31.4,28.3,29.99,NE,41,4.0,4.0,88,0.00,,,0.00,Wunderground v.1.15,2013-10-03 14:42:00,
2013-10-03 08:47:00,31.3,28.2,29.99,NW,317,3.0,4.0,88,0.00,,,0.00,Wunderground v.1.15,2013-10-03 14:47:00,
2013-10-03 08:56:00,31.3,28.2,30.00,NNE,16,3.0,4.0,88,0.00,,,0.00,Wunderground v.1.15,2013-10-03 14:56:00,
2013-10-03 09:01:00,31.3,28.2,30.00,WNW,294,3.0,3.0,88,0.00,,,0.00,Wunderground v.1.15,2013-10-03 15:01:00,
2013-10-03 09:07:00,31.2,28.1,30.00,South,173,3.0,3.0,88,0.00,,,0.00,Wunderground v.1.15,2013-10-03 15:07:00,
2013-10-03 09:12:00,31.2,27.8,30.00,NE,53,5.0,5.0,87,0.00,,,0.00,Wunderground v.1.15,2013-10-03 15:12:00,
2013-10-03 09:17:00,31.2,28.1,30.01,NNE,32,5.0,8.0,88,0.00,,,0.00,Wunderground v.1.15,2013-10-03 15:17:00,
2013-10-03 09:22:00,31.2,28.1,30.01,NE,39,4.0,4.0,88,0.00,,,0.00,Wunderground v.1.15,2013-10-03 15:22:00,
2013-10-03 09:27:00,31.2,27.8,30.01,NE,40,5.0,5.0,87,0.00,,,0.00,Wunderground v.1.15,2013-10-03 15:27:00,
2013-10-03 09:36:00,31.2,28.1,30.02,ENE,65,4.0,6.0,88,0.00,,,0.00,Wunderground v.1.15,2013-10-03 15:36:00,
2013-10-03 09:41:00,31.2,28.1,30.02,NNE,23,4.0,4.0,88,0.00,,,0.00,Wunderground v.1.15,2013-10-03 15:41:00,
2013-10-03 09:47:00,31.2,28.1,30.03,NW,325,3.0,4.0,88,0.00,,,0.00,Wunderground v.1.15,2013-10-03 15:47:00,
2013-10-03 09:52:00,31.1,27.7,30.03,NW,326,4.0,4.0,87,0.00,,,0.00,Wunderground v.1.15,2013-10-03 15:52:00,
2013-10-03 09:57:00,31.2,28.1,30.03,ENE,63,3.0,4.0,88,0.00,,,0.00,Wunderground v.1.15,2013-10-03 15:57:00,
2013-10-03 10:02:00,31.1,27.7,30.04,NNE,23,2.0,8.0,87,0.00,,,0.00,Wunderground v.1.15,2013-10-03 16:02:00,
2013-10-03 10:12:00,31.2,27.2,30.04,NNE,15,5.0,5.0,85,0.00,,,0.00,Wunderground v.1.15,2013-10-03 16:12:00,
2013-10-03 10:22:00,31.2,27.5,30.04,NE,37,4.0,7.0,86,0.00,,,0.00,Wunderground v.1.15,2013-10-03 16:22:00,
2013-10-03 10:27:00,31.2,27.5,30.05,NE,56,4.0,7.0,86,0.00,,,0.00,Wunderground v.1.15,2013-10-03 16:27:00,
2013-10-03 10:32:00,31.2,27.5,30.05,ENE,57,3.0,6.0,86,0.00,,,0.00,Wunderground v.1.15,2013-10-03 16:32:00,
2013-10-03 10:37:00,31.2,27.2,30.05,NE,56,5.0,6.0,85,0.00,,,0.00,Wunderground v.1.15,2013-10-03 16:37:00,
2013-10-03 10:42:00,31.2,27.2,30.05,NE,50,6.0,6.0,85,0.00,,,0.00,Wunderground v.1.15,2013-10-03 16:42:00,
2013-10-03 10:47:00,31.3,27.6,30.06,NE,50,4.0,6.0,86,0.00,,,0.00,Wunderground v.1.15,2013-10-03 16:47:00,
2013-10-03 10:56:00,31.3,27.0,30.07,NE,51,4.0,4.0,84,0.00,,,0.00,Wunderground v.1.15,2013-10-03 16:56:00,
2013-10-03 11:02:00,31.3,27.3,30.07,ENE,75,3.0,3.0,85,0.00,,,0.00,Wunderground v.1.15,2013-10-03 17:02:00,
2013-10-03 11:07:00,31.3,27.3,30.07,NE,43,2.0,4.0,85,0.00,,,0.00,Wunderground v.1.15,2013-10-03 17:07:00,
2013-10-03 11:12:00,31.4,27.4,30.08,NNE,19,2.0,2.0,85,0.00,,,0.00,Wunderground v.1.15,2013-10-03 17:12:00,
2013-10-03 11:17:00,31.2,27.2,30.07,WNW,300,3.0,3.0,85,0.00,,,0.00,Wunderground v.1.15,2013-10-03 17:17:00,
2013-10-03 11:22:00,31.3,27.6,30.08,NW,304,3.0,8.0,86,0.00,,,0.00,Wunderground v.1.15,2013-10-03 17:22:00,
2013-10-03 11:27:00,31.2,27.5,30.08,ENE,63,3.0,8.0,86,0.00,,,0.00,Wunderground v.1.15,2013-10-03 17:27:00,
2013-10-03 11:36:00,31.1,27.4,30.08,NNW,335,3.0,4.0,86,0.00,,,0.00,Wunderground v.1.15,2013-10-03 17:36:00,
2013-10-03 11:42:00,31.1,27.4,30.08,NE,40,5.0,5.0,86,0.00,,,0.00,Wunderground v.1.15,2013-10-03 17:42:00,
2013-10-03 11:47:00,31.0,27.3,30.09,NE,46,5.0,9.0,86,0.00,,,0.00,Wunderground v.1.15,2013-10-03 17:47:00,
2013-10-03 11:52:00,31.0,27.6,30.09,NE,39,6.0,6.0,87,0.00,,,0.00,Wunderground v.1.15,2013-10-03 17:52:00,
2013-10-03 11:57:00,30.9,27.8,30.09,NE,52,5.0,6.0,88,0.00,,,0.00,Wunderground v.1.15,2013-10-03 17:57:00,
2013-10-03 12:02:00,31.1,28.2,30.09,NE,37,4.0,4.0,89,0.00,,,0.00,Wunderground v.1.15,2013-10-03 18:02:00,
2013-10-03 12:07:00,31.1,27.7,30.10,NE,56,3.0,6.0,87,0.00,,,0.00,Wunderground v.1.15,2013-10-03 18:07:00,
2013-10-03 12:17:00,31.3,28.2,30.10,NE,41,4.0,8.0,88,0.00,,,0.00,Wunderground v.1.15,2013-10-03 18:17:00,
2013-10-03 12:22:00,31.4,28.0,30.10,NE,54,3.0,5.0,87,0.00,,,0.00,Wunderground v.1.15,2013-10-03 18:22:00,
2013-10-03 12:27:00,31.4,28.0,30.10,ENE,62,4.0,5.0,87,0.00,,,0.00,Wunderground v.1.15,2013-10-03 18:27:00,
2013-10-03 12:32:00,31.7,28.0,30.10,SSE,155,3.0,3.0,86,0.00,,,0.00,Wunderground v.1.15,2013-10-03 18:32:00,
2013-10-03 12:37:00,32.0,28.6,30.10,NNE,22,2.0,3.0,87,0.00,,,0.00,Wunderground v.1.15,2013-10-03 18:37:00,
2013-10-03 12:42:00,32.2,28.8,30.11,NE,55,2.0,2.0,87,0.00,,,0.00,Wunderground v.1.15,2013-10-03 18:42:00,
2013-10-03 12:51:00,32.1,28.4,30.11,NNE,30,2.0,11.0,86,0.00,,,0.00,Wunderground v.1.15,2013-10-03 18:51:00,
2013-10-03 12:57:00,31.9,28.2,30.11,NE,43,4.0,11.0,86,0.00,,,0.00,Wunderground v.1.15,2013-10-03 18:57:00,
2013-10-03 13:02:00,31.9,28.2,30.11,NE,53,4.0,4.0,86,0.00,,,0.00,Wunderground v.1.15,2013-10-03 19:02:00,
2013-10-03 13:07:00,32.2,28.8,30.11,East,82,3.0,5.0,87,0.00,,,0.00,Wunderground v.1.15,2013-10-03 19:07:00,
2013-10-03 13:12:00,32.3,28.3,30.11,NW,316,3.0,3.0,85,0.00,,,0.00,Wunderground v.1.15,2013-10-03 19:12:00,
2013-10-03 13:17:00,32.7,28.7,30.11,North,1,3.0,4.0,85,0.00,,,0.00,Wunderground v.1.15,2013-10-03 19:17:00,
2013-10-03 13:22:00,32.8,28.2,30.12,ENE,78,3.0,3.0,83,0.00,,,0.00,Wunderground v.1.15,2013-10-03 19:22:00,
2013-10-03 13:31:00,33.1,27.3,30.13,ENE,63,3.0,3.0,79,0.00,,,0.00,Wunderground v.1.15,2013-10-03 19:31:00,
2013-10-03 13:36:00,33.2,27.7,30.13,ENE,76,3.0,6.0,80,0.00,,,0.00,Wunderground v.1.15,2013-10-03 19:36:00,
2013-10-03 13:42:00,33.1,27.3,30.13,NW,325,3.0,3.0,79,0.00,,,0.00,Wunderground v.1.15,2013-10-03 19:42:00,
2013-10-03 13:47:00,33.1,27.3,30.13,NNW,333,4.0,4.0,79,0.00,,,0.00,Wunderground v.1.15,2013-10-03 19:47:00,
2013-10-03 13:52:00,33.1,27.6,30.14,WNW,295,3.0,3.0,80,0.00,,,0.00,Wunderground v.1.15,2013-10-03 19:52:00,
2013-10-03 13:57:00,32.9,27.1,30.14,NW,325,3.0,3.0,79,0.00,,,0.00,Wunderground v.1.15,2013-10-03 19:57:00,
2013-10-03 14:06:00,32.8,27.0,30.14,North,8,3.0,5.0,79,0.00,,,0.00,Wunderground v.1.15,2013-10-03 20:06:00,
2013-10-03 14:11:00,32.9,26.8,30.15,SW,236,3.0,3.0,78,0.00,,,0.00,Wunderground v.1.15,2013-10-03 20:11:00,
2013-10-03 14:16:00,33.1,27.6,30.15,NW,305,3.0,3.0,80,0.00,,,0.00,Wunderground v.1.15,2013-10-03 20:16:00,
2013-10-03 14:22:00,33.3,27.2,30.15,NNE,25,3.0,5.0,78,0.00,,,0.00,Wunderground v.1.15,2013-10-03 20:22:00,
2013-10-03 14:27:00,33.2,26.8,30.15,North,3,4.0,5.0,77,0.00,,,0.00,Wunderground v.1.15,2013-10-03 20:27:00,
2013-10-03 14:32:00,33.1,27.0,30.16,NE,49,3.0,5.0,78,0.00,,,0.00,Wunderground v.1.15,2013-10-03 20:32:00,
2013-10-03 14:37:00,33.2,27.1,30.16,ENE,72,3.0,5.0,78,0.00,,,0.00,Wunderground v.1.15,2013-10-03 20:37:00,
2013-10-03 14:46:00,33.2,27.4,30.17,East,82,4.0,6.0,79,0.00,,,0.00,Wunderground v.1.15,2013-10-03 20:46:00,
2013-10-03 14:51:00,33.3,26.9,30.17,East,79,3.0,4.0,77,0.00,,,0.00,Wunderground v.1.15,2013-10-03 20:51:00,
2013-10-03 14:57:00,33.2,26.5,30.18,NW,326,4.0,4.0,76,0.00,,,0.00,Wunderground v.1.15,2013-10-03 20:57:00,
2013-10-03 15:02:00,33.1,26.4,30.18,North,354,4.0,4.0,76,0.00,,,0.00,Wunderground v.1.15,2013-10-03 21:02:00,
2013-10-03 15:07:00,33.0,26.3,30.18,NE,37,4.0,4.0,76,0.00,,,0.00,Wunderground v.1.15,2013-10-03 21:07:00,
2013-10-03 15:12:00,32.9,26.8,30.18,ENE,72,3.0,9.0,78,0.00,,,0.00,Wunderground v.1.15,2013-10-03 21:12:00,
2013-10-03 15:17:00,32.7,27.2,30.18,NNE,31,3.0,9.0,80,0.00,,,0.00,Wunderground v.1.15,2013-10-03 21:17:00,
2013-10-03 15:22:00,32.4,27.2,30.19,NW,319,4.0,4.0,81,0.00,,,0.00,Wunderground v.1.15,2013-10-03 21:22:00,
2013-10-03 15:31:00,32.1,27.8,30.20,ENE,62,2.0,2.0,84,0.00,,,0.00,Wunderground v.1.15,2013-10-03 21:31:00,
2013-10-03 15:37:00,31.7,27.7,30.20,NE,49,2.0,8.0,85,0.00,,,0.00,Wunderground v.1.15,2013-10-03 21:37:00,
2013-10-03 15:42:00,31.3,27.6,30.20,ENE,70,3.0,3.0,86,0.00,,,0.00,Wunderground v.1.15,2013-10-03 21:42:00,
2013-10-03 15:47:00,31.2,27.8,30.20,NW,311,2.0,10.0,87,0.00,,,0.00,Wunderground v.1.15,2013-10-03 21:47:00,
2013-10-03 15:52:00,31.0,27.6,30.20,NNW,335,2.0,2.0,87,0.00,,,0.00,Wunderground v.1.15,2013-10-03 21:52:00,
2013-10-03 15:57:00,31.1,28.0,30.20,SSW,203,2.0,2.0,88,0.00,,,0.00,Wunderground v.1.15,2013-10-03 21:57:00,
2013-10-03 16:02:00,31.1,28.0,30.20,NE,43,1.0,1.0,88,0.00,,,0.00,Wunderground v.1.15,2013-10-03 22:02:00,
2013-10-03 16:11:00,31.2,28.1,30.21,NW,311,1.0,1.0,88,0.00,,,0.00,Wunderground v.1.15,2013-10-03 22:11:00,
2013-10-03 16:17:00,31.2,28.1,30.22,NNW,342,1.0,1.0,88,0.00,,,0.00,Wunderground v.1.15,2013-10-03 22:17:00,
2013-10-03 16:22:00,31.3,28.2,30.22,NE,46,1.0,1.0,88,0.00,,,0.00,Wunderground v.1.15,2013-10-03 22:22:00,
2013-10-03 16:27:00,31.4,28.0,30.22,WNW,297,1.0,1.0,87,0.00,,,0.00,Wunderground v.1.15,2013-10-03 22:27:00,
2013-10-03 16:32:00,31.7,28.3,30.22,NE,52,1.0,1.0,87,0.00,,,0.00,Wunderground v.1.15,2013-10-03 22:32:00,
2013-10-03 16:37:00,31.9,27.9,30.23,ENE,76,1.0,1.0,85,0.00,,,0.00,Wunderground v.1.15,2013-10-03 22:37:00,
2013-10-03 16:46:00,32.1,27.8,30.23,North,1,2.0,2.0,84,0.00,,,0.00,Wunderground v.1.15,2013-10-03 22:46:00,
2013-10-03 16:52:00,32.2,27.6,30.23,NW,326,1.0,1.0,83,0.00,,,0.00,Wunderground v.1.15,2013-10-03 22:52:00,
2013-10-03 16:57:00,32.3,28.0,30.23,WSW,252,1.0,1.0,84,0.00,,,0.00,Wunderground v.1.15,2013-10-03 22:57:00,
2013-10-03 17:02:00,32.3,27.7,30.23,NE,51,1.0,3.0,83,0.00,,,0.00,Wunderground v.1.15,2013-10-03 23:02:00,
2013-10-03 17:07:00,32.2,27.6,30.24,NE,50,2.0,3.0,83,0.00,,,0.00,Wunderground v.1.15,2013-10-03 23:07:00,
2013-10-03 17:12:00,32.3,28.3,30.24,North,355,2.0,3.0,85,0.00,,,0.00,Wunderground v.1.15,2013-10-03 23:12:00,
2013-10-03 17:17:00,32.3,28.0,30.24,ENE,65,1.0,4.0,84,0.00,,,0.00,Wunderground v.1.15,2013-10-03 23:17:00,
2013-10-03 17:26:00,32.4,27.8,30.24,NE,51,3.0,5.0,83,0.00,,,0.00,Wunderground v.1.15,2013-10-03 23:26:00,
2013-10-03 17:32:00,32.5,27.6,30.25,NE,44,3.0,3.0,82,0.00,,,0.00,Wunderground v.1.15,2013-10-03 23:32:00,
2013-10-03 17:37:00,32.5,27.9,30.25,NW,309,2.0,3.0,83,0.00,,,0.00,Wunderground v.1.15,2013-10-03 23:37:00,
2013-10-03 17:42:00,32.6,28.0,30.25,NNW,338,1.0,1.0,83,0.00,,,0.00,Wunderground v.1.15,2013-10-03 23:42:00,
2013-10-03 17:47:00,32.7,27.5,30.25,ENE,64,1.0,2.0,81,0.00,,,0.00,Wunderground v.1.15,2013-10-03 23:47:00,
2013-10-03 17:52:00,32.7,27.5,30.25,ENE,76,2.0,2.0,81,0.00,,,0.00,Wunderground v.1.15,2013-10-03 23:52:00,
2013-10-03 18:01:00,32.6,27.4,30.26,NNE,22,2.0,2.0,81,0.00,,,0.00,Wunderground v.1.15,2013-10-04 00:01:00,
2013-10-03 18:07:00,32.4,27.5,30.26,ENE,58,2.0,2.0,82,0.00,,,0.00,Wunderground v.1.15,2013-10-04 00:07:00,
2013-10-03 18:12:00,32.2,27.3,30.26,NNE,32,2.0,2.0,82,0.00,,,0.00,Wunderground v.1.15,2013-10-04 00:12:00,
2013-10-03 18:17:00,32.1,27.5,30.26,ENE,66,1.0,2.0,83,0.00,,,0.00,Wunderground v.1.15,2013-10-04 00:17:00,
2013-10-03 18:22:00,32.1,27.5,30.27,ENE,68,0.0,1.0,83,0.00,,,0.00,Wunderground v.1.15,2013-10-04 00:22:00,
2013-10-03 18:27:00,32.1,28.1,30.27,WSW,242,0.0,1.0,85,0.00,,,0.00,Wunderground v.1.15,2013-10-04 00:27:00,
2013-10-03 18:32:00,32.0,27.4,30.27,ENE,60,1.0,1.0,83,0.00,,,0.00,Wunderground v.1.15,2013-10-04 00:32:00,
2013-10-03 18:41:00,32.3,27.1,30.28,ENE,59,2.0,5.0,81,0.00,,,0.00,Wunderground v.1.15,2013-10-04 00:41:00,
2013-10-03 18:47:00,32.4,26.9,30.28,ENE,64,3.0,5.0,80,0.00,,,0.00,Wunderground v.1.15,2013-10-04 00:47:00,
2013-10-03 18:52:00,32.5,27.0,30.28,East,91,2.0,2.0,80,0.00,,,0.00,Wunderground v.1.15,2013-10-04 00:52:00,
2013-10-03 18:57:00,32.6,26.5,30.28,NE,50,2.0,2.0,78,0.00,,,0.00,Wunderground v.1.15,2013-10-04 00:57:00,
2013-10-03 19:02:00,32.6,26.5,30.29,ENE,68,2.0,2.0,78,0.00,,,0.00,Wunderground v.1.15,2013-10-04 01:02:00,
2013-10-03 19:07:00,32.6,26.2,30.29,East,90,2.0,2.0,77,0.00,,,0.00,Wunderground v.1.15,2013-10-04 01:07:00,
2013-10-03 19:12:00,32.6,26.2,30.29,North,358,2.0,2.0,77,0.00,,,0.00,Wunderground v.1.15,2013-10-04 01:12:00,
2013-10-03 19:21:00,32.6,26.2,30.30,NE,43,3.0,5.0,77,0.00,,,0.00,Wunderground v.1.15,2013-10-04 01:21:00,
2013-10-03 19:26:00,32.5,26.7,30.30,NNE,29,3.0,5.0,79,0.00,,,0.00,Wunderground v.1.15,2013-10-04 01:26:00,
2013-10-03 19:32:00,32.5,26.4,30.30,NE,56,3.0,4.0,78,0.00,,,0.00,Wunderground v.1.15,2013-10-04 01:32:00,
2013-10-03 19:37:00,32.5,26.4,30.31,NNE,32,3.0,4.0,78,0.00,,,0.00,Wunderground v.1.15,2013-10-04 01:37:00,
2013-10-03 19:42:00,32.5,26.7,30.31,ENE,72,2.0,2.0,79,0.00,,,0.00,Wunderground v.1.15,2013-10-04 01:42:00,
2013-10-03 19:47:00,32.5,26.7,30.31,NE,50,1.0,2.0,79,0.00,,,0.00,Wunderground v.1.15,2013-10-04 01:47:00,
2013-10-03 19:56:00,32.4,26.3,30.31,ENE,71,2.0,4.0,78,0.00,,,0.00,Wunderground v.1.15,2013-10-04 01:56:00,
2013-10-03 20:01:00,32.3,26.5,30.32,East,94,2.0,2.0,79,0.00,,,0.00,Wunderground v.1.15,2013-10-04 02:01:00,
2013-10-03 20:06:00,32.2,26.7,30.32,NNW,338,2.0,2.0,80,0.00,,,0.00,Wunderground v.1.15,2013-10-04 02:06:00,
2013-10-03 20:12:00,32.2,26.7,30.32,NE,54,2.0,3.0,80,0.00,,,0.00,Wunderground v.1.15,2013-10-04 02:12:00,
2013-10-03 20:17:00,32.1,26.6,30.32,NE,36,2.0,3.0,80,0.00,,,0.00,Wunderground v.1.15,2013-10-04 02:17:00,
2013-10-03 20:22:00,32.0,26.5,30.33,NE,55,2.0,5.0,80,0.00,,,0.00,Wunderground v.1.15,2013-10-04 02:22:00,
2013-10-03 20:27:00,31.8,26.6,30.33,North,10,3.0,5.0,81,0.00,,,0.00,Wunderground v.1.15,2013-10-04 02:27:00,
2013-10-03 20:36:00,31.5,26.9,30.34,NE,36,2.0,4.0,83,0.00,,,0.00,Wunderground v.1.15,2013-10-04 02:36:00,
2013-10-03 20:41:00,31.4,26.8,30.34,WSW,245,1.0,1.0,83,0.00,,,0.00,Wunderground v.1.15,2013-10-04 02:41:00,
2013-10-03 20:47:00,31.4,26.8,30.34,WNW,288,0.0,1.0,83,0.00,,,0.00,Wunderground v.1.15,2013-10-04 02:47:00,
2013-10-03 20:52:00,31.4,26.5,30.34,East,101,1.0,1.0,82,0.00,,,0.00,Wunderground v.1.15,2013-10-04 02:52:00,
2013-10-03 20:57:00,31.4,26.2,30.34,NE,54,1.0,2.0,81,0.00,,,0.00,Wunderground v.1.15,2013-10-04 02:57:00,
2013-10-03 21:02:00,31.4,26.2,30.35,ENE,72,1.0,1.0,81,0.00,,,0.00,Wunderground v.1.15,2013-10-04 03:02:00,
2013-10-03 21:07:00,31.4,26.2,30.35,East,97,2.0,2.0,81,0.00,,,0.00,Wunderground v.1.15,2013-10-04 03:07:00,
2013-10-03 21:12:00,31.4,26.2,30.35,ENE,72,2.0,2.0,81,0.00,,,0.00,Wunderground v.1.15,2013-10-04 03:12:00,
2013-10-03 21:21:00,31.2,25.7,30.36,WNW,298,1.0,1.0,80,0.00,,,0.00,Wunderground v.1.15,2013-10-04 03:21:00,
2013-10-03 21:27:00,31.2,25.7,30.35,North,8,1.0,1.0,80,0.00,,,0.00,Wunderground v.1.15,2013-10-04 03:27:00,
2013-10-03 21:32:00,31.2,25.7,30.36,NW,311,1.0,1.0,80,0.00,,,0.00,Wunderground v.1.15,2013-10-04 03:32:00,
2013-10-03 21:37:00,31.4,25.3,30.35,NE,53,1.0,1.0,78,0.00,,,0.00,Wunderground v.1.15,2013-10-04 03:37:00,
2013-10-03 21:42:00,31.4,25.3,30.35,ENE,76,0.0,0.0,78,0.00,,,0.00,Wunderground v.1.15,2013-10-04 03:42:00,
2013-10-03 21:47:00,31.3,25.2,30.36,West,266,0.0,5.0,78,0.00,,,0.00,Wunderground v.1.15,2013-10-04 03:47:00,
2013-10-03 21:52:00,31.4,24.7,30.35,SW,236,0.0,0.0,76,0.00,,,0.00,Wunderground v.1.15,2013-10-04 03:52:00,
2013-10-03 22:37:00,31.4,25.0,30.36,NE,51,0.0,0.0,77,0.00,,,0.00,Wunderground v.1.15,2013-10-04 04:37:00,
2013-10-03 22:42:00,31.4,24.7,30.36,SW,235,0.0,1.0,76,0.00,,,0.00,Wunderground v.1.15,2013-10-04 04:42:00,
2013-10-03 22:47:00,31.6,24.6,30.37,West,281,0.0,1.0,75,0.00,,,0.00,Wunderground v.1.15,2013-10-04 04:47:00,
2013-10-03 22:52:00,31.8,24.5,30.37,NE,53,0.0,0.0,74,0.00,,,0.00,Wunderground v.1.15,2013-10-04 04:52:00,
2013-10-03 22:57:00,31.9,24.9,30.37,NNW,335,0.0,0.0,75,0.00,,,0.00,Wunderground v.1.15,2013-10-04 04:57:00,
2013-10-03 23:12:00,32.1,25.1,30.38,ESE,110,1.0,1.0,75,0.00,,,0.00,Wunderground v.1.15,2013-10-04 05:12:00,
2013-10-03 23:22:00,31.8,25.4,30.37,East,96,1.0,1.0,77,0.00,,,0.00,Wunderground v.1.15,2013-10-04 05:22:00,
2013-10-03 23:27:00,31.8,25.1,30.37,WNW,297,1.0,1.0,76,0.00,,,0.00,Wunderground v.1.15,2013-10-04 05:27:00,
2013-10-03 23:32:00,31.8,25.4,30.37,ENE,72,1.0,1.0,77,0.00,,,0.00,Wunderground v.1.15,2013-10-04 05:32:00,
2013-10-03 23:37:00,31.8,25.4,30.37,East,84,1.0,1.0,77,0.00,,,0.00,Wunderground v.1.15,2013-10-04 05:37:00,
2013-10-03 23:41:00,31.9,25.8,30.37,ENE,67,1.0,1.0,78,0.00,,,0.00,Wunderground v.1.15,2013-10-04 05:41:00,
2013-10-03 23:46:00,31.7,25.9,30.37,East,98,1.0,2.0,79,0.00,,,0.00,Wunderground v.1.15,2013-10-04 05:46:00,
2013-10-03 23:52:00,31.4,25.9,30.38,ENE,68,2.0,2.0,80,0.00,,,0.00,Wunderground v.1.15,2013-10-04 05:52:00,
2013-10-03 23:57:00,31.3,26.1,30.38,ESE,105,2.0,2.0,81,0.00,,,0.00,Wunderground v.1.15,2013-10-04 05:57:00,